RH
94 97 97 99 99 94 97 97 95 100 94 39 37 37 36 36 38 39 42 45 47 50 53 56 54 56 61 50 67 76 86 90 86 83 72 63 71 66 58 41 31 32 28 26 26 28 25
97 97 97 97 98 98 97 94 96 97 96 45 38 37 35 35 37 39 39 41 44 46 50 53 58 60 52 72 80 81 83 82 74 69 71 82 73 59 52 31 34 26 25 27 27 26 25
97 97 98 98 98 99 98 98 99 97 96 49 35 35 35 34 34 35 33 36 40 44 48 49 51 58 58 78 75 76 80 79 71 66 70 82 64 56 34 34 23 21 32 29 27 26 27
97 97 98 97 99 99 99 99 99 95 71 33 33 34 36 34 32 31 28 29 36 41 45 47 55 52 64 63 66 61 68 68 64 67 67 67 67 50 39 25 28 28 25 31 28 28 26
96 97 97 96 97 98 99 100 100 88 34 29 30 36 37 36 33 30 26 29 36 38 43 47 52 49 68 60 53 55 58 62 62 64 73 72 54 39 34 33 30 25 34 21 32 27 27
97 97 97 94 99 99 96 97 100 94 40 30 32 32 35 35 34 32 28 32 34 40 43 46 42 54 52 59 58 59 58 63 60 54 65 61 41 40 35 30 38 29 25 20 24 27 28
97 96 93 89 93 96 97 96 98 100 54 30 39 39 36 34 35 32 34 41 32 33 37 48 47 53 58 53 58 56 62 66 57 60 73 47 46 49 34 24 25 17 19 26 28 28 30
97 94 88 66 62 69 75 90 87 97 49 30 38 41 40 35 34 32 39 30 50 61 40 39 42 45 44 54 52 48 55 58 72 86 55 48 73 38 35 32 28 19 22 25 32 26 27
97 96 84 70 47 51 54 58 53 52 35 33 41 40 43 38 35 46 45 54 51 64 39 33 36 38 39 44 44 47 42 50 67 51 48 68 43 36 32 31 29 25 21 29 30 26 23
97 79 74 66 58 48 49 49 41 40 48 33 43 38 40 35 40 49 48 54 56 65 47 36 33 36 33 40 48 37 40 41 42 44 44 43 35 33 31 29 34 32 28 27 27 26 34
93 76 68 66 64 57 52 46 36 37 39 32 43 41 40 38 49 41 67 66 67 56 76 32 34 31 32 37 41 41 39 37 42 41 40 55 47 46 36 43 38 36 25 26 26 32 41
88 76 67 67 66 62 54 49 34 34 36 38 39 41 39 52 51 61 53 64 58 73 83 39 35 36 32 32 35 34 35 28 32 36 37 47 44 46 49 36 30 27 24 21 20 24 65
92 81 71 68 66 64 59 54 43 29 33 41 33 43 49 46 48 48 51 52 81 78 38 42 45 36 35 36 33 38 40 40 41 88 73 37 45 42 45 34 30 25 22 61 51 63 35
91 88 78 69 66 62 60 57 47 31 33 41 38 42 47 56 55 57 57 48 71 46 40 39 42 33 38 37 34 36 37 41 38 34 42 64 58 51 46 48 45 33 30 62 34 38 33
89 92 80 72 68 63 60 57 51 34 31 39 42 57 57 66 57 58 44 84 79 41 46 47 37 33 34 36 36 31 41 47 43 41 36 38 47 44 48 40 43 36 35 34 42 44 41
85 82 79 74 69 66 61 58 50 31 31 41 54 48 50 46 49 54 49 55 48 47 50 47 37 36 34 37 34 33 35 45 48 42 39 28 38 44 42 40 39 38 34 46 40 52 34
83 82 80 74 72 69 64 59 52 30 28 43 53 37 49 43 48 35 69 53 46 44 49 51 43 37 36 37 38 36 37 47 45 44 38 39 28 40 41 34 36 34 32 31 35 40 34
84 82 79 76 73 74 66 61 54 37 25 56 51 61 42 35 43 35 44 44 52 46 45 46 44 40 36 34 34 38 41 45 46 48 38 40 33 33 31 42 43 40 33 30 35 37 32
81 81 79 76 73 72 70 63 59 50 38 60 34 40 45 46 44 44 49 48 48 46 43 42 39 40 36 31 33 36 39 52 45 48 43 38 36 38 35 40 43 44 35 38 31 32 31
79 80 80 78 75 71 70 64 59 51 38 50 36 61 34 35 37 34 40 39 43 51 42 41 38 39 34 30 30 32 31 45 52 47 63 43 32 35 34 33 40 41 46 40 31 44 24
79 81 83 79 76 69 70 66 62 51 38 47 38 47 48 41 38 37 38 38 42 43 43 40 37 37 34 30 28 28 35 38 46 51 40 32 25 43 25 27 36 36 35 46 43 36 32
78 80 83 81 81 73 71 67 63 52 42 50 40 37 43 37 44 41 44 40 39 40 38 40 39 37 37 37 34 34 33 32 32 42 38 36 35 37 37 36 36 36 29 26 36 37 33
87 85 84 80 85 79 72 69 66 58 53 49 61 58 47 60 40 37 34 36 38 41 43 40 38 38 40 40 40 41 39 39 42 43 38 40 39 42 46 38 40 43 34 33 30 30 30
97 95 90 84 89 89 75 71 70 67 60 72 71 59 42 29 38 31 41 39 41 43 43 41 41 41 46 43 43 43 43 46 45 47 48 44 39 47 63 48 66 39 30 31 33 31 30
99 100 100 96 96 93 86 76 76 71 70 74 74 66 47 34 30 36 46 42 44 43 46 45 45 46 44 44 47 45 45 47 51 53 50 49 42 52 64 50 34 36 38 36 37 31 27
100 100 100 100 100 100 100 90 78 78 74 84 74 71 62 50 32 40 43 44 40 36 42 46 51 50 46 44 45 46 35 37 40 58 55 54 50 51 52 59 43 31 30 29 30 36 28
86 88 91 94 99 100 100 100 97 84 81 83 86 72 69 57 45 45 40 40 41 44 42 48 52 56 48 46 48 43 39 40 37 40 63 61 57 60 52 55 40 31 33 30 43 39 31
84 83 78 77 82 83 85 94 100 100 91 87 90 75 76 66 58 59 50 48 49 48 40 51 52 56 54 57 49 44 46 42 44 37 47 47 52 56 49 54 64 33 38 39 37 36 35
95 92 83 77 70 65 63 66 75 91 100 99 97 83 80 74 66 68 66 65 54 48 50 52 54 52 43 57 50 48 52 49 43 40 45 49 36 36 40 39 38 34 34 29 36 38 39
Wind_Speed
10 12 13 15 16 17 16 15 13 12 10 5 7 8 9 10 12 12 11 7 4 5 9 11 5 6 6 2 5 10 12 7 2 3 13 11 12 11 12 14 16 14 15 2 3 5 8
11 13 14 15 17 18 18 16 15 13 11 6 6 7 8 9 11 12 12 10 7 6 9 11 7 5 5 3 10 10 8 4 5 2 6 8 4 9 12 14 13 15 10 5 5 7 6
12 13 14 15 17 19 19 19 16 13 11 6 5 7 7 8 9 13 13 11 8 7 7 10 4 2 14 5 9 8 6 3 6 2 5 4 6 10 6 10 8 13 9 7 6 7 5
12 13 15 16 18 19 20 20 18 14 11 6 5 7 7 7 9 13 15 9 10 6 7 7 4 3 4 5 6 7 5 3 7 7 7 8 5 9 7 5 7 16 11 11 6 6 3
13 13 14 15 17 18 20 20 18 15 11 8 7 6 7 7 8 11 14 3 8 5 2 4 4 3 2 9 4 6 7 3 5 8 5 3 7 6 3 12 11 15 12 17 7 5 4
12 13 14 15 17 19 20 21 21 18 11 9 9 8 7 6 6 9 13 3 3 10 2 2 12 2 5 5 5 4 4 1 1 7 4 6 5 7 9 12 12 16 17 13 11 7 10
12 13 14 15 16 19 20 22 22 21 13 9 11 10 9 6 5 7 9 3 3 4 12 8 10 10 2 3 3 5 4 3 5 7 1 4 7 10 12 11 12 16 17 11 10 3 9
12 13 14 15 17 19 21 23 24 23 16 9 11 12 9 6 4 5 5 3 2 1 2 3 2 2 6 3 5 4 2 1 4 4 9 6 4 3 6 5 8 13 16 12 4 2 4
12 14 14 16 17 19 22 25 25 24 18 11 11 12 9 7 1 2 5 3 1 1 4 2 1 4 3 6 5 4 4 6 3 3 6 2 6 3 4 4 4 4 13 12 11 6 4
12 14 15 16 17 19 22 24 25 25 20 12 11 13 8 4 2 2 2 1 0 1 1 10 4 4 2 2 3 4 4 4 1 3 2 6 3 3 4 5 7 6 8 3 13 13 7
12 14 15 16 17 19 21 24 24 27 24 10 10 13 6 4 2 0 1 1 1 3 3 9 5 1 1 2 0 3 0 2 3 5 2 4 5 9 8 5 10 6 3 6 10 5 6
11 14 15 16 17 19 22 25 25 27 26 12 8 11 6 4 3 2 1 0 2 0 3 3 4 7 3 4 1 5 2 1 3 6 11 4 2 4 6 5 4 8 6 7 5 4 2
10 13 15 15 17 19 22 25 27 27 27 14 6 8 7 3 2 2 1 3 1 4 1 6 4 6 4 6 3 5 6 6 3 4 3 5 5 2 6 3 3 2 7 3 3 2 2
11 12 15 16 17 19 22 25 27 27 27 14 6 4 5 4 3 2 2 3 5 1 2 2 3 5 4 8 4 5 2 4 10 6 1 2 2 6 9 5 4 2 3 2 3 5 4
10 13 15 16 17 18 22 25 27 28 28 14 3 1 2 6 4 1 4 5 1 2 3 5 4 2 3 3 4 3 6 5 7 9 4 1 3 0 2 5 4 2 2 2 1 2 2
10 12 14 16 17 18 21 24 27 28 28 12 1 2 2 9 3 4 2 2 3 2 5 3 4 4 4 5 1 2 5 4 4 7 4 4 2 1 2 2 1 3 2 3 2 2 3
9 10 13 15 16 17 20 23 27 28 28 10 1 2 2 7 1 0 3 3 1 1 3 5 5 4 3 4 4 2 4 3 6 6 4 5 3 3 2 1 5 1 2 1 2 2 2
8 9 11 13 15 17 18 21 25 27 26 9 3 2 5 3 1 2 3 2 0 1 1 1 3 4 5 5 4 2 3 4 6 5 4 5 4 2 1 1 2 3 3 3 3 2 2
8 10 9 11 14 16 17 20 23 26 24 7 5 2 4 2 2 2 3 3 1 2 2 1 1 1 2 4 1 3 3 3 6 5 5 5 1 2 2 3 2 3 1 2 1 2 4
9 10 10 10 13 15 16 18 21 24 20 5 3 2 2 3 2 2 1 1 2 0 1 2 2 2 2 1 2 2 1 1 2 3 4 4 2 4 3 3 1 2 4 4 4 2 2
10 10 11 10 10 13 15 17 20 22 16 3 3 2 3 2 3 3 1 1 1 2 2 2 2 3 3 2 1 1 0 2 2 0 2 3 3 3 5 3 3 5 5 7 10 9 5
12 11 11 9 9 10 12 16 19 21 12 2 2 2 2 0 1 2 2 2 2 1 2 2 3 1 2 3 5 4 3 1 2 2 2 0 0 2 4 1 5 8 11 12 12 13 13
16 14 12 9 8 9 10 12 16 20 9 3 1 1 3 1 1 3 0 2 1 1 2 3 2 2 3 1 3 2 1 2 4 4 2 3 2 2 2 3 8 10 14 15 7 7 10
18 15 14 11 8 8 8 9 11 15 16 4 4 3 3 2 3 1 1 1 2 3 2 1 3 3 3 1 1 2 2 2 3 1 2 3 3 2 3 4 3 2 4 4 10 5 11
8 13 15 13 10 8 6 7 7 9 11 6 5 3 3 4 3 4 4 3 2 3 3 3 2 2 0 2 3 3 3 3 2 1 3 2 3 2 3 3 9 6 4 6 8 6 11
11 10 8 11 12 9 8 7 5 7 7 5 5 4 2 4 2 2 2 1 3 3 3 2 2 1 2 2 2 2 2 3 1 1 1 2 5 4 1 4 4 4 5 1 1 5 10
8 7 6 7 5 5 4 4 6 6 5 5 4 4 3 2 2 1 2 3 1 2 3 1 3 3 2 3 3 4 3 0 3 3 4 3 4 8 7 5 7 8 8 4 3 3 8
9 9 10 10 8 7 6 4 1 4 6 4 5 5 2 2 5 3 2 3 2 3 4 3 2 3 3 4 3 3 3 2 2 1 3 6 5 5 4 5 7 9 6 5 4 4 4
7 8 8 6 7 8 8 7 8 7 5 8 4 7 5 5 3 4 8 10 8 6 3 3 3 1 1 3 2 1 3 2 3 4 3 4 7 3 6 2 2 11 2 5 1 1 4
Wind_Direction
34 28 24 19 16 12 5 1 355 347 338 324 327 340 340 331 340 344 340 320 312 348 2 352 337 320 300 60 28 333 338 347 330 233 214 214 208 208 210 200 179 223 203 216 285 275 251
29 29 23 21 14 14 10 5 358 350 339 336 330 342 343 336 345 355 354 336 284 296 349 4 31 7 278 56 337 336 340 8 22 187 107 68 7 309 280 184 182 203 169 175 199 175 201
29 26 23 16 13 12 9 8 2 356 345 343 333 341 345 344 350 350 350 346 336 290 314 349 354 103 59 11 344 348 358 53 42 99 125 107 337 316 237 152 199 183 164 167 175 168 176
24 21 20 17 11 11 7 8 2 359 358 358 346 337 339 335 340 347 341 2 359 327 292 325 326 359 74 348 17 10 358 108 62 105 100 169 309 292 283 127 170 178 189 177 148 163 176
20 17 15 15 12 7 3 3 1 357 5 3 350 344 338 323 333 347 348 343 40 32 350 339 342 330 24 332 31 14 26 55 104 107 140 152 276 276 209 181 163 185 183 193 151 176 196
16 14 11 14 6 6 5 1 360 355 349 357 349 328 324 319 325 340 353 344 33 27 13 202 12 181 26 358 355 354 43 29 284 131 152 221 246 204 203 189 177 179 187 185 166 167 209
10 11 11 13 11 5 3 359 357 354 346 340 344 339 316 312 317 342 350 299 261 181 43 63 44 81 284 347 9 68 57 24 117 44 130 203 212 186 186 191 305 180 184 167 98 158 207
7 8 9 13 15 13 8 2 1 358 1 347 341 340 326 302 306 341 1 34 53 356 85 134 167 346 15 330 59 80 227 43 55 160 235 174 173 356 334 294 301 163 175 144 113 229 219
10 5 7 12 17 14 12 8 7 5 2 357 348 346 339 321 257 28 82 95 158 182 278 106 286 319 348 339 22 36 336 107 142 343 68 160 53 360 273 206 202 230 172 150 166 166 75
10 9 7 10 13 12 10 8 7 6 0 351 353 353 351 359 150 144 74 38 126 208 196 5 18 53 1 305 345 70 7 338 37 50 104 54 34 356 183 147 322 165 53 148 155 182 159
9 8 5 8 8 9 8 6 6 4 1 346 351 359 359 30 66 350 96 336 271 251 34 341 8 1 34 4 47 121 0 245 25 329 267 30 16 359 59 359 306 96 111 164 175 135 117
7 3 3 3 2 4 5 6 4 4 -0 350 335 0 4 4 55 49 334 319 263 97 46 9 346 356 30 61 341 310 343 184 326 81 78 87 63 29 359 360 45 106 141 155 179 148 158
355 358 359 358 357 1 3 3 4 1 1 354 329 344 15 27 30 335 343 221 349 54 276 345 338 342 348 12 5 13 30 48 42 47 19 73 44 40 17 250 85 241 193 159 141 191 98
348 350 351 353 356 358 359 360 1 359 0 351 333 329 1 34 342 333 242 244 61 258 350 357 309 314 29 357 67 350 294 74 47 2 67 127 149 5 353 31 357 5 332 307 146 175 125
342 345 351 349 352 354 356 357 358 358 356 358 351 328 339 322 345 314 256 44 85 4 351 319 281 312 87 44 315 340 44 31 29 11 345 157 97 325 358 29 313 87 253 354 80 79 202
332 345 349 345 347 350 354 355 355 356 354 358 332 286 336 341 330 250 62 83 22 357 329 292 360 347 21 25 344 22 12 26 360 15 343 34 112 57 19 302 108 314 52 255 214 162 148
320 347 343 346 343 347 353 355 355 354 354 359 295 271 344 350 311 287 73 90 88 35 335 325 354 335 20 9 357 58 37 64 2 345 339 347 290 86 307 342 359 164 193 40 311 341 318
307 331 336 345 343 344 349 353 355 354 357 6 302 308 345 17 330 32 65 58 8 141 201 277 300 330 353 356 14 38 29 32 4 334 356 23 320 162 64 90 327 297 330 305 313 75 34
303 309 324 341 344 342 346 351 354 355 360 343 325 312 339 20 27 68 131 134 233 206 207 228 275 355 352 349 310 14 15 37 358 348 2 3 212 174 187 189 193 264 186 322 292 322 233
281 294 310 325 338 342 344 351 353 355 355 16 304 320 57 63 50 13 153 111 174 205 286 308 318 269 285 329 29 34 55 82 356 356 338 301 296 307 339 26 332 212 219 223 253 249 253
261 283 298 313 328 341 344 349 354 356 352 23 7 38 2 349 72 73 281 179 184 216 219 253 225 276 325 300 297 10 3 190 204 66 268 327 306 346 293 285 265 269 255 212 211 228 250
256 275 286 298 314 326 340 351 358 359 355 18 331 314 183 38 299 269 164 192 239 229 248 183 272 71 309 322 345 342 331 332 8 168 314 167 320 291 266 286 268 270 257 243 234 248 260
257 263 268 275 295 315 330 349 0 8 19 20 31 133 282 140 212 272 87 148 174 197 199 300 293 267 256 312 326 356 338 322 337 320 317 296 287 312 261 332 305 268 252 218 215 223 233
252 256 259 263 276 293 311 335 357 14 22 16 15 312 268 220 235 244 172 270 223 224 292 167 251 270 52 33 246 240 227 244 224 201 302 291 276 304 293 289 235 98 69 25 210 248 227
216 235 247 248 251 260 282 309 335 4 16 30 29 353 317 282 292 230 223 231 220 216 240 247 163 40 134 253 273 268 201 229 182 353 238 257 257 252 274 262 301 167 203 177 182 216 207
86 113 151 213 219 223 246 265 308 322 358 3 18 27 313 312 65 351 286 271 280 247 217 183 135 149 211 260 248 267 289 7 172 175 73 236 265 271 235 272 266 67 136 109 206 256 166
46 41 53 65 97 163 183 227 254 280 312 339 317 3 304 285 77 259 283 323 2 299 298 140 162 187 256 222 239 232 236 45 247 226 171 173 210 235 238 260 277 120 138 156 238 72 154
35 29 33 32 16 13 11 4 2 269 259 276 290 293 322 300 288 224 242 221 217 243 272 112 198 185 189 230 248 231 254 154 269 182 193 199 197 212 219 242 262 142 126 222 94 111 145
27 14 15 12 20 10 2 346 338 314 354 240 248 265 230 244 298 237 237 246 257 296 311 198 342 168 246 242 258 298 233 222 260 259 184 230 224 281 221 247 55 184 330 172 163 193 211